Location: Ch�tillon
(48.8024°N, 2.2935°E)
Time: 00:44:10
(UTC+00:00)

Cosmos 2082 - Pass Details

Date: 16 October 2021
Orbit: 835 x 853 km, 71.0° (Epoch: 27 November)

Event Time Altitude Azimuth Distance (km) Brightness Sun altitude
Rises 18:06:43 0° 330° (NNW) 3,398 7.3 -11.9°
Reaches altitude 10° 18:09:10 10° 329° (NNW) 2,458 6.5 -12.3°
Maximum altitude 18:14:48 77° 245° (WSW) 862 3.9 -13.2°
Drops below altitude 10° 18:20:23 10° 160° (SSE) 2,442 5.9 -14.1°
Sets 18:22:49 0° 159° (SSE) 3,373 6.6 -14.5°
